Voltar ao catálogo

DELTA 1 DEB

AtivoSSO
NORAD 3416·DEBRIS·🇺🇸 United States

Lançado Aug 16, 1968 de Vandenberg Space Force Base

Loading…

Próximas Passagens (próximas 24 horas)

TLE

AtualizadoSource: Space-Track

Época: Sep 14, 2026, 08:19 UTC

1 03416U 68069C   26257.34682303 -.00000030  00000-0  88505-4 0  9998
2 03416 101.7400  32.7803 0118801 334.0014  51.9066 12.67155265685563

Acompanhe DELTA 1 DEB em tempo real com AllMySat

Download on the App Store